Regional Weather Roundup
Issued by NWS Boston, MA

Current Version | Previous Version | Text Only | Print | Product List | Glossary Off
Versions: 1 2 3 4 5 6 7 8 9 10 11 12 13 14 15 16 17 18 19 20 21 22 23 24 25 26 27 28 29 30 31 32 33 34 35 36 37 38 39 40 41 42 43 44 45 46 47 48 49 50
000 ASUS41 KBOX 191910 RWRBOX REGIONAL WEATHER ROUNDUP NATIONAL WEATHER SERVICE BOSTON/NORTON MA 300 PM EDT FRI OCT 19 2018 NOTE: "FAIR" INDICATES FEW OR NO CLOUDS BELOW 12,000 FEET WITH NO SIGNIFICANT WEATHER AND/OR OBSTRUCTIONS TO VISIBILITY. MAZALL-192000- EASTERN MASSACHUSETTS CITY SKY/WX TMP DP RH WIND PRES REMARKS BOSTON FAIR 62 35 36 W14G22 30.02F BEVERLY FAIR 60 36 40 SW13 30.00F LAWRENCE FAIR 62 37 39 SW16G25 30.01F BEDFORD FAIR 61 36 39 SW10G22 30.00F BLUE HILL N/A 58 33 39 SW15G28 30.01F NORWOOD FAIR 63 33 32 SW12G22 30.03F MARSHFIELD FAIR 61 37 41 SW12G18 30.03F PLYMOUTH FAIR 60 37 42 SW15G22 30.05F TAUNTON FAIR 60 40 47 SW13G21 30.06F NEW BEDFORD FAIR 57 45 64 SW17G26 30.06F $$ MAZALL-192000- CAPE COD AND THE ISLANDS CITY SKY/WX TMP DP RH WIND PRES REMARKS FALMOUTH FAIR 55 37 50 SW21G30 30.08F HYANNIS FAIR 58 42 55 SW23G30 30.05F CHATHAM FAIR 58 41 53 SW15G25 30.09F PROVINCETOWN FAIR 58 43 57 SW18G29 30.05F NANTUCKET FAIR 58 44 60 SW23G31 30.10F MARTHAS VNYRD FAIR 58 43 57 SW15G24 30.08F $$ MAZALL-192000- CENTRAL AND WESTERN MASSACHUSETTS CITY SKY/WX TMP DP RH WIND PRES REMARKS WORCESTER FAIR 57 31 37 SW15G24 30.02F FITCHBURG FAIR 59 35 40 SW12G18 30.01F ORANGE FAIR 61 35 37 SW14 30.02F SPRINGFIELD MOSUNNY 60 32 35 S13 30.02F WESTFIELD FAIR 61 33 35 S14G21 30.03F NORTH ADAMS FAIR 61 37 41 VRB7 29.99F PITTSFIELD FAIR 59 35 40 SW10 30.01F $$ RIZALL-192000- RHODE ISLAND CITY SKY/WX TMP DP RH WIND PRES REMARKS PROVIDENCE PTSUNNY 59 37 44 SW14 30.07F NEWPORT FAIR 56 40 55 SW13G23 30.08F SMITHFIELD FAIR 60 33 36 SW9 30.04F WESTERLY FAIR 59 41 51 SW10 30.10F $$ CTZALL-192000- CONNECTICUT CITY SKY/WX TMP DP RH WIND PRES REMARKS BRADLEY INTL PTSUNNY 61 35 37 SW13 30.05F HARTFORD FAIR 60 37 42 S9 30.06F BRIDGEPORT FAIR 58 36 43 SW12 30.10F DANBURY FAIR 57 36 45 SW8 30.09F GROTON FAIR 58 41 53 SW14 30.09F NEW HAVEN PTSUNNY 59 39 47 SW13G20 30.10F CHESTER FAIR 59 37 44 VRB6G16 30.09F MERIDEN FAIR 60 36 40 S10 30.07F WILLIMANTIC FAIR 60 35 39 SW7 30.07F OXFORD FAIR 58 33 39 SW9 30.08F $$ MEZ002-015-021-024-NHZ003-005-008-011-012-014-VTZ005-008-192000- NORTHERN NEW ENGLAND CITY SKY/WX TMP DP RH WIND PRES REMARKS PORTLAND ME FAIR 53 38 56 S14 29.97F BANGOR ME FAIR 53 32 44 S12 29.95F CONCORD NH FAIR 60 37 42 SW8 29.96F MANCHESTER NH FAIR 59 36 42 SW10 29.97F NASHUA NH FAIR 59 38 45 SW7G16 29.99F PORTSMOUTH NH MOSUNNY 58 35 42 SW10 29.97F JAFFREY NH FAIR 56 36 47 SW10G21 30.00F KEENE NH FAIR 59 37 44 SW13G18 29.99F BURLINGTON VT FAIR 59 37 44 S21G30 29.89F MT. WASHINGTON MOSUNNY 32 25 74 W48G56 N/A WCI 15 $$ NYZ052-076-192000- EASTERN NEW YORK CITY SKY/WX TMP DP RH WIND PRES REMARKS ALBANY FAIR 58 36 43 S14G21 30.01F NEW YORK CITY PTSUNNY 62 30 29 S13 30.11F $$ ANZALL-192000- MARINE OBSERVATIONS STATION/POSITION TIME TEMP WIND PRES VSBY WAVE AIR SEA DIR/SP/G HT/PER (UTC) (F) (DEG/KT/KT) (MB) (MI) (FT/S) BOSTON BUOY 1850 58 57 210/ 14/ 17 1016.3F 2/ 3 BUZZARDS BAY 1800 53 230/ 20/ 23 1020.4F NANTUCKET SOUND 1850 56 60 240/ 21/ 25 1018.8F 3/ 4 MASS BAY-STELLWA 1804 53 55 240/ 16/ 19 1016.5F 1 7/8 2/ 3 ISLE OF SHOALS 1800 53 230/ 17/ 19 1016.3F S OF BLOCK IS 1843 63 N/A 5/ 5 $$ ......................KEY......................... SKY/WX - SKY CONDITION/PRESENT WEATHER TMP - TEMPERATURE IN FAHRENHEIT DWPT - DEWPOINT IN FAHRENHEIT RH - RELATIVE HUMIDITY IN PERCENT WIND - DIRECTION AND SPEED IN MPH PRES - MEAN SEA LEVEL PRESSURE IN INCHES OF HG WCI - WIND CHILL INDEX VSB - VISIBILITY IN MILES HX - HEAT INDEX TC - TEMPERATURE IN CELSIUS VRB - VARIABLE WIND DIRECTION N/A - NOT AVAILABLE

USA.gov is the U.S. government's official web portal to all federal, state and local government web resources and services.